GW4982 Weather Reports


Display with metric or nautical units.
time (UTC)temp
F
wind
direction
speed
MPH
gust
MPH
rain 1hr
in
rain 24hr
in
rain mn
in
humidity
%
barometer
mb
20260507040358 58 0 0.0 0.0 0.00 0.00 0.00 90 1016.0
20260507035859 58 0 0.0 0.0 0.00 0.00 0.00 89 1016.0
20260507035358 59 0 0.0 0.0 0.00 0.00 0.00 89 1016.0
20260507034901 59 0 0.0 0.0 0.00 0.00 0.00 89 1015.0
20260507034358 59 0 0.0 0.0 0.00 0.00 0.00 88 1015.0
20260507033858 59 337 2.0 2.0 0.00 0.00 0.00 88 1015.0
20260507033358 59 0 0.0 0.0 0.00 0.00 0.00 87 1015.0
20260507032858 60 0 0.0 0.0 0.00 0.00 0.00 87 1015.0
20260507032359 60 0 0.0 0.0 0.00 0.00 0.00 86 1015.0
20260507031858 60 308 0.0 2.0 0.00 0.00 0.00 86 1015.0
20260507031358 60 0 0.0 0.0 0.00 0.00 0.00 85 1015.0
20260507030858 61 0 0.0 0.0 0.00 0.00 0.00 85 1015.0
20260507030359 61 0 0.0 0.0 0.00 0.00 0.00 84 1015.0
20260507025908 62 0 0.0 0.0 0.00 0.00 0.00 82 1015.0
20260507025358 62 161 2.0 3.0 0.00 0.00 0.00 80 1015.0
20260507024858 63 169 1.0 3.0 0.00 0.00 0.00 78 1015.0
20260507024358 64 0 0.0 0.0 0.00 0.00 0.00 76 1015.0
20260507023858 64 0 0.0 0.0 0.00 0.00 0.00 74 1015.0
20260507023401 65 0 0.0 0.0 0.00 0.00 0.00 73 1015.0
20260507022858 67 167 1.0 3.0 0.00 0.00 0.00 72 1015.0
20260507022358 68 167 2.0 3.0 0.00 0.00 0.00 67 1015.0
20260507021858 69 153 2.0 2.0 0.00 0.00 0.00 65 1015.0
20260507021358 69 145 2.0 3.0 0.00 0.00 0.00 63 1015.0
20260507020858 69 142 2.0 2.0 0.00 0.00 0.00 64 1015.0
20260507020358 68 147 2.0 2.0 0.00 0.00 0.00 65 1015.0
20260507015858 68 149 2.0 2.0 0.00 0.00 0.00 66 1015.0
20260507015359 69 143 2.0 3.0 0.00 0.00 0.00 65 1015.0
20260507014859 69 167 0.0 2.0 0.00 0.00 0.00 64 1015.0
20260507014358 69 128 3.0 4.0 0.00 0.00 0.00 63 1015.0
20260507013858 69 165 2.0 2.0 0.00 0.00 0.00 63 1015.0
20260507013359 69 138 1.0 3.0 0.00 0.00 0.00 63 1015.0
20260507012858 68 163 1.0 2.0 0.00 0.00 0.00 64 1015.0
20260507012358 67 157 2.0 2.0 0.00 0.00 0.00 69 1015.0
20260507011900 67 157 2.0 4.0 0.00 0.00 0.00 70 1015.0
20260507011400 66 172 3.0 4.0 0.00 0.00 0.00 72 1015.0
20260507010858 67 188 3.0 4.0 0.00 0.00 0.00 73 1015.0
20260507010358 67 177 3.0 4.0 0.00 0.00 0.00 72 1015.0
20260507005858 68 197 3.0 4.0 0.00 0.00 0.00 67 1015.0
20260507005359 68 168 2.0 3.0 0.00 0.00 0.00 68 1015.0
20260507004858 68 166 3.0 4.0 0.00 0.00 0.00 68 1015.0
20260507004358 69 191 4.0 4.0 0.00 0.00 0.00 65 1015.0
20260507003858 69 187 2.0 4.0 0.00 0.00 0.00 64 1015.0
20260507003358 69 174 2.0 3.0 0.00 0.00 0.00 62 1015.0
20260507002858 69 166 3.0 4.0 0.00 0.00 0.00 62 1015.0
20260507002359 68 193 2.0 4.0 0.00 0.00 0.00 64 1015.0
20260507001900 68 182 4.0 4.0 0.00 0.00 0.00 63 1015.0
20260507001358 68 158 3.0 4.0 0.00 0.00 0.00 64 1015.0
20260507000858 68 173 5.0 6.0 0.00 0.00 0.00 63 1015.0
20260507000359 69 157 2.0 3.0 0.00 0.00 0.00 63 1015.0
20260506235858 69 166 3.0 5.0 0.00 0.00 0.00 62 1015.0
20260506235359 68 189 4.0 5.0 0.00 0.00 0.00 62 1015.0
20260506234858 68 145 3.0 7.0 0.00 0.00 0.00 64 1015.0
20260506234358 67 212 3.0 4.0 0.00 0.00 0.00 65 1015.0
20260506233858 67 180 3.0 4.0 0.00 0.00 0.00 65 1015.0
20260506233400 67 185 3.0 4.0 0.00 0.00 0.00 65 1015.0
20260506232858 68 196 3.0 4.0 0.00 0.00 0.00 65 1015.0
20260506232358 68 204 3.0 5.0 0.00 0.00 0.00 64 1015.0
20260506231858 68 192 2.0 4.0 0.00 0.00 0.00 63 1015.0
20260506231358 67 163 2.0 4.0 0.00 0.00 0.00 65 1015.0
20260506230858 67 165 3.0 4.0 0.00 0.00 0.00 65 1015.0
20260506230358 67 167 3.0 5.0 0.00 0.00 0.00 66 1016.0
20260506225858 67 195 4.0 5.0 0.00 0.00 0.00 66 1016.0
20260506225358 67 165 4.0 5.0 0.00 0.00 0.00 68 1016.0
20260506224858 67 184 3.0 4.0 0.00 0.00 0.00 66 1016.0
20260506224358 67 181 4.0 7.0 0.00 0.00 0.00 67 1016.0
20260506223859 67 174 2.0 4.0 0.00 0.00 0.00 68 1016.0
20260506223358 66 181 3.0 5.0 0.00 0.00 0.00 69 1016.0
20260506222858 66 197 4.0 7.0 0.00 0.00 0.00 69 1016.0
20260506222358 67 171 4.0 5.0 0.00 0.00 0.00 70 1016.0
20260506221858 67 162 4.0 5.0 0.00 0.00 0.00 70 1016.0
20260506221358 67 193 4.0 5.0 0.00 0.00 0.00 70 1016.0
20260506220900 68 201 3.0 5.0 0.00 0.00 0.00 67 1016.0
20260506220359 67 204 3.0 5.0 0.00 0.00 0.00 67 1016.0
20260506215859 67 197 4.0 5.0 0.00 0.00 0.00 68 1017.0
20260506215358 67 190 2.0 3.0 0.00 0.00 0.00 68 1017.0
20260506214859 67 167 4.0 5.0 0.00 0.00 0.00 70 1017.0
20260506214400 67 177 4.0 5.0 0.00 0.00 0.00 70 1017.0
20260506213858 67 203 3.0 4.0 0.00 0.00 0.00 69 1017.0
20260506213358 67 167 4.0 6.0 0.00 0.00 0.00 68 1017.0
20260506212859 67 184 4.0 6.0 0.00 0.00 0.00 68 1017.0
20260506211934 67 183 2.0 4.0 0.00 0.00 0.00 66 1017.0
20260506211358 67 158 4.0 5.0 0.00 0.00 0.00 67 1017.0
20260506210858 67 184 4.0 6.0 0.00 0.00 0.00 67 1017.0
20260506210358 68 185 4.0 5.0 0.00 0.00 0.00 65 1017.0
20260506205859 67 155 3.0 4.0 0.00 0.00 0.00 66 1017.0
20260506205359 67 162 3.0 5.0 0.00 0.00 0.00 66 1017.0
20260506204858 66 176 4.0 4.0 0.00 0.00 0.00 69 1017.0
20260506204400 65 181 4.0 5.0 0.00 0.00 0.00 69 1017.0
20260506203859 65 137 4.0 6.0 0.00 0.00 0.00 68 1017.0
20260506203400 65 177 3.0 5.0 0.00 0.00 0.00 69 1017.0
20260506202900 65 182 4.0 4.0 0.00 0.00 0.00 68 1017.0
20260506202400 65 187 3.0 6.0 0.00 0.00 0.00 71 1017.0
20260506201859 65 160 4.0 6.0 0.00 0.00 0.00 70 1017.0
20260506201359 65 198 4.0 5.0 0.00 0.00 0.00 71 1017.0
20260506200901 66 188 4.0 6.0 0.00 0.00 0.00 69 1017.0
20260506200400 66 168 3.0 5.0 0.00 0.00 0.00 69 1017.0
20260506195858 67 181 4.0 6.0 0.00 0.00 0.00 67 1017.0
20260506195359 67 139 4.0 8.0 0.00 0.00 0.00 65 1017.0
20260506194858 67 167 3.0 4.0 0.00 0.00 0.00 67 1017.0
20260506194358 66 173 3.0 5.0 0.00 0.00 0.00 69 1017.0
20260506193858 66 168 5.0 6.0 0.00 0.00 0.00 68 1017.0
20260506193407 66 175 4.0 5.0 0.00 0.00 0.00 66 1017.0
20260506192858 65 150 3.0 5.0 0.00 0.00 0.00 69 1017.0
20260506192358 65 176 3.0 4.0 0.00 0.00 0.00 70 1018.0
20260506191900 64 158 3.0 5.0 0.00 0.00 0.00 70 1018.0
20260506191359 64 183 4.0 5.0 0.00 0.00 0.00 72 1018.0
20260506190858 65 173 3.0 5.0 0.00 0.00 0.00 69 1018.0
20260506190359 65 160 2.0 4.0 0.00 0.00 0.00 71 1018.0
20260506185858 65 183 5.0 6.0 0.00 0.00 0.00 70 1018.0
20260506185358 65 162 3.0 4.0 0.00 0.00 0.00 69 1018.0
20260506184859 64 186 4.0 6.0 0.00 0.00 0.00 71 1018.0
20260506184358 64 183 4.0 5.0 0.00 0.00 0.00 71 1018.0
20260506183901 65 183 4.0 6.0 0.00 0.00 0.00 71 1018.0
20260506183358 65 177 3.0 6.0 0.00 0.00 0.00 70 1018.0
20260506182859 65 157 5.0 8.0 0.00 0.00 0.00 69 1018.0
20260506182358 65 178 4.0 6.0 0.00 0.00 0.00 69 1018.0
20260506181858 65 185 3.0 4.0 0.00 0.00 0.00 71 1018.0
20260506181359 65 151 3.0 8.0 0.00 0.00 0.00 68 1018.0
20260506180858 65 139 3.0 12.0 0.00 0.00 0.00 69 1018.0
20260506180358 64 176 4.0 5.0 0.00 0.00 0.00 71 1018.0
20260506175858 64 174 3.0 4.0 0.00 0.00 0.00 74 1018.0
20260506175358 64 182 2.0 4.0 0.00 0.00 0.00 74 1018.0
20260506174900 63 170 3.0 4.0 0.00 0.00 0.00 76 1018.0
20260506174358 63 166 3.0 4.0 0.00 0.00 0.00 76 1018.0
20260506173858 63 172 3.0 4.0 0.00 0.00 0.00 75 1018.0
20260506173359 63 169 3.0 4.0 0.00 0.00 0.00 77 1018.0
20260506172859 63 169 2.0 4.0 0.00 0.00 0.00 77 1018.0
20260506172358 62 174 2.0 4.0 0.00 0.00 0.00 78 1018.0
20260506171858 62 175 2.0 4.0 0.00 0.00 0.00 79 1018.0
20260506171358 62 169 4.0 6.0 0.00 0.00 0.00 79 1018.0
20260506170858 62 165 4.0 5.0 0.00 0.00 0.00 79 1018.0
20260506170359 62 174 4.0 5.0 0.00 0.00 0.00 79 1018.0
20260506165858 62 175 3.0 5.0 0.00 0.00 0.00 78 1018.0
20260506165358 62 164 3.0 3.0 0.00 0.00 0.00 78 1018.0
20260506164858 62 156 4.0 4.0 0.00 0.00 0.00 78 1018.0
20260506164359 62 163 3.0 4.0 0.00 0.00 0.00 78 1018.0
20260506163859 62 161 3.0 4.0 0.00 0.00 0.00 78 1018.0
20260506163359 62 167 3.0 5.0 0.00 0.00 0.00 79 1018.0
20260506162859 62 155 3.0 3.0 0.00 0.00 0.00 79 1018.0
20260506162358 61 164 4.0 5.0 0.00 0.00 0.00 79 1018.0
20260506161858 61 160 3.0 3.0 0.00 0.00 0.00 80 1018.0
20260506161359 61 159 2.0 3.0 0.00 0.00 0.00 81 1018.0
20260506160859 60 159 3.0 4.0 0.00 0.00 0.00 83 1018.0
20260506160359 60 163 2.0 3.0 0.00 0.00 0.00 82 1018.0
20260506155900 60 165 3.0 4.0 0.00 0.00 0.00 83 1018.0
20260506155359 59 150 2.0 3.0 0.00 0.00 0.00 85 1018.0
20260506154858 59 162 4.0 4.0 0.00 0.00 0.00 84 1018.0
20260506154359 59 155 4.0 6.0 0.00 0.00 0.00 84 1018.0
20260506153859 59 158 4.0 5.0 0.00 0.00 0.00 85 1018.0
20260506153358 59 158 4.0 4.0 0.00 0.00 0.00 85 1018.0
20260506152858 59 160 4.0 5.0 0.00 0.00 0.00 86 1018.0
20260506152358 58 162 1.0 5.0 0.00 0.00 0.00 85 1018.0
20260506151858 58 0 0.0 0.0 0.00 0.00 0.00 86 1018.0
20260506151358 57 329 1.0 1.0 0.00 0.00 0.00 87 1018.0
20260506150858 56 326 1.0 1.0 0.00 0.00 0.00 89 1018.0
20260506150358 56 326 1.0 1.0 0.00 0.00 0.00 89 1018.0
20260506145900 55 323 1.0 1.0 0.00 0.00 0.00 90 1018.0
20260506145358 55 325 1.0 1.0 0.00 0.00 0.00 91 1018.0
20260506144859 54 320 1.0 1.0 0.00 0.00 0.00 92 1018.0
20260506144359 54 316 1.0 1.0 0.00 0.00 0.00 92 1018.0
20260506143858 53 0 0.0 0.0 0.00 0.00 0.00 92 1018.0
20260506143359 53 0 0.0 0.0 0.00 0.00 0.00 92 1018.0
20260506142858 52 0 0.0 0.0 0.00 0.00 0.00 92 1018.0
20260506142359 52 0 0.0 0.0 0.00 0.00 0.00 93 1018.0
20260506141900 51 0 0.0 0.0 0.00 0.00 0.00 92 1018.0
20260506141403 51 0 0.0 0.0 0.00 0.00 0.00 93 1018.0
20260506140858 51 0 0.0 0.0 0.00 0.00 0.00 93 1018.0
20260506140358 51 0 0.0 0.0 0.00 0.00 0.00 93 1018.0
20260506135859 50 0 0.0 0.0 0.00 0.00 0.00 93 1018.0
20260506135359 50 0 0.0 0.0 0.00 0.00 0.00 93 1018.0
20260506134859 50 0 0.0 0.0 0.00 0.00 0.00 93 1018.0
20260506134358 50 0 0.0 0.0 0.00 0.00 0.00 93 1018.0
20260506133859 50 0 0.0 0.0 0.00 0.00 0.00 93 1017.0
20260506133403 50 0 0.0 0.0 0.00 0.00 0.00 93 1017.0
20260506132858 50 0 0.0 0.0 0.00 0.00 0.00 93 1017.0
20260506132400 50 0 0.0 0.0 0.00 0.00 0.00 93 1017.0
20260506131859 50 0 0.0 0.0 0.00 0.00 0.00 93 1017.0
20260506131359 50 0 0.0 0.0 0.00 0.00 0.00 93 1017.0
20260506130859 50 0 0.0 0.0 0.00 0.00 0.00 92 1017.0
20260506130358 50 0 0.0 0.0 0.00 0.00 0.00 92 1017.0
20260506125859 50 0 0.0 0.0 0.00 0.00 0.00 92 1017.0
20260506125358 50 0 0.0 0.0 0.00 0.00 0.00 92 1017.0
20260506124858 50 0 0.0 0.0 0.00 0.00 0.00 92 1017.0
20260506124359 50 0 0.0 0.0 0.00 0.00 0.00 92 1017.0
20260506123858 50 0 0.0 0.0 0.00 0.00 0.00 92 1017.0
20260506123359 50 0 0.0 0.0 0.00 0.00 0.00 92 1017.0
20260506122858 51 0 0.0 0.0 0.00 0.00 0.00 92 1017.0
20260506122358 50 0 0.0 0.0 0.00 0.00 0.00 93 1017.0
20260506121859 50 0 0.0 0.0 0.00 0.00 0.00 93 1017.0
20260506121358 50 0 0.0 0.0 0.00 0.00 0.00 93 1017.0
20260506120859 50 0 0.0 0.0 0.00 0.00 0.00 92 1017.0
20260506120358 50 0 0.0 0.0 0.00 0.00 0.00 92 1017.0
20260506115858 50 0 0.0 0.0 0.00 0.00 0.00 92 1017.0
20260506115359 50 0 0.0 0.0 0.00 0.00 0.00 92 1017.0
20260506114859 50 0 0.0 0.0 0.00 0.00 0.00 92 1017.0
20260506114359 50 0 0.0 0.0 0.00 0.00 0.00 92 1017.0
20260506113858 50 0 0.0 0.0 0.00 0.00 0.00 92 1017.0
20260506113401 50 0 0.0 0.0 0.00 0.00 0.00 92 1017.0
20260506112859 50 0 0.0 0.0 0.00 0.00 0.00 92 1017.0
20260506112359 50 0 0.0 0.0 0.00 0.00 0.00 92 1017.0
20260506111900 50 0 0.0 0.0 0.00 0.00 0.00 92 1017.0
20260506111359 50 0 0.0 0.0 0.00 0.00 0.00 92 1017.0
20260506110858 50 0 0.0 0.0 0.00 0.00 0.00 92 1017.0
20260506110358 50 0 0.0 0.0 0.00 0.00 0.00 92 1017.0
20260506105858 50 0 0.0 0.0 0.00 0.00 0.00 92 1017.0
20260506105358 50 0 0.0 0.0 0.00 0.00 0.00 92 1017.0
20260506104901 51 0 0.0 0.0 0.00 0.00 0.00 92 1017.0
20260506104358 51 0 0.0 0.0 0.00 0.00 0.00 92 1017.0
20260506103900 51 0 0.0 0.0 0.00 0.00 0.00 92 1017.0
20260506103358 51 0 0.0 0.0 0.00 0.00 0.00 92 1017.0
20260506102900 51 0 0.0 0.0 0.00 0.00 0.00 92 1017.0
20260506102407 51 0 0.0 0.0 0.00 0.00 0.00 92 1017.0
20260506101858 50 0 0.0 0.0 0.00 0.00 0.00 92 1017.0
20260506101359 50 0 0.0 0.0 0.00 0.00 0.00 92 1017.0
20260506100859 51 0 0.0 0.0 0.00 0.00 0.00 92 1017.0
20260506100400 51 0 0.0 0.0 0.00 0.00 0.00 92 1017.0
20260506095859 51 0 0.0 0.0 0.00 0.00 0.00 92 1017.0
20260506095359 51 0 0.0 0.0 0.00 0.00 0.00 92 1017.0
20260506094858 51 0 0.0 0.0 0.00 0.00 0.00 92 1017.0
20260506094358 51 0 0.0 0.0 0.00 0.00 0.00 92 1017.0
20260506093859 51 0 0.0 0.0 0.00 0.00 0.00 92 1017.0
20260506093358 51 327 1.0 1.0 0.00 0.00 0.00 92 1017.0
20260506092858 51 0 0.0 0.0 0.00 0.00 0.00 92 1017.0
20260506092358 51 0 0.0 0.0 0.00 0.00 0.00 92 1017.0
20260506091410 51 0 0.0 0.0 0.00 0.00 0.00 92 1017.0
20260506090859 51 0 0.0 0.0 0.00 0.00 0.00 92 1017.0
20260506090400 51 0 0.0 0.0 0.00 0.00 0.00 92 1017.0
20260506085858 51 0 0.0 0.0 0.00 0.00 0.00 92 1017.0
20260506085358 52 0 0.0 0.0 0.00 0.00 0.00 92 1017.0
20260506084858 52 0 0.0 0.0 0.00 0.00 0.00 92 1017.0
20260506084358 52 0 0.0 0.0 0.00 0.00 0.00 92 1017.0
20260506083859 52 0 0.0 0.0 0.00 0.00 0.00 92 1017.0
20260506083358 52 0 0.0 0.0 0.00 0.00 0.00 92 1017.0
20260506082859 52 0 0.0 0.0 0.00 0.00 0.00 92 1017.0
20260506082359 52 0 0.0 0.0 0.00 0.00 0.00 92 1017.0
20260506081902 52 0 0.0 0.0 0.00 0.00 0.00 92 1017.0
20260506081358 52 0 0.0 0.0 0.00 0.00 0.00 92 1017.0
20260506080859 52 0 0.0 0.0 0.00 0.00 0.00 92 1017.0
20260506080358 53 0 0.0 0.0 0.00 0.00 0.00 92 1017.0
20260506073359 53 0 0.0 0.0 0.00 0.00 0.00 92 1017.0
20260506072900 53 0 0.0 0.0 0.00 0.00 0.00 92 1017.0
20260506072358 53 0 0.0 0.0 0.00 0.00 0.00 92 1017.0
20260506071858 53 0 0.0 0.0 0.00 0.00 0.00 92 1017.0
20260506071358 53 0 0.0 0.0 0.00 0.00 0.00 92 1017.0
20260506070858 53 0 0.0 0.0 0.00 0.00 0.00 92 1017.0
20260506070358 53 0 0.0 0.0 0.00 0.00 0.00 92 1016.0
20260506062359 54 0 0.0 0.0 0.00 0.00 0.00 91 1016.0
20260506061858 54 0 0.0 0.0 0.00 0.00 0.00 91 1016.0
20260506061359 54 0 0.0 0.0 0.00 0.00 0.00 90 1016.0
20260506060858 54 0 0.0 0.0 0.00 0.00 0.00 90 1016.0
20260506060358 54 0 0.0 0.0 0.00 0.00 0.00 90 1016.0
20260506051359 56 0 0.0 0.0 0.00 0.00 0.00 87 1016.0
20260506050858 56 326 1.0 2.0 0.00 0.00 0.00 87 1015.0
20260506050358 57 0 0.0 0.0 0.00 0.00 0.00 86 1015.0
20260506044858 58 0 0.0 0.0 0.00 0.00 0.00 82 1015.0
20260506044358 58 303 1.0 3.0 0.00 0.00 0.00 80 1015.0
20260506043858 58 332 1.0 1.0 0.00 0.00 0.00 79 1015.0
20260506043358 57 275 3.0 7.0 0.00 0.00 0.00 82 1015.0
20260506042859 57 0 0.0 0.0 0.00 0.00 0.00 82 1015.0
20260506042359 57 0 0.0 0.0 0.00 0.00 0.00 83 1015.0
20260506041905 57 0 0.0 0.0 0.00 0.00 0.00 83 1015.0
20260506041358 57 0 0.0 0.0 0.00 0.00 0.00 83 1015.0
20260506040858 57 0 0.0 0.0 0.00 0.00 0.00 84 1015.0